STARLINK-11270, 60999

Orbit data source: Space-Track

STARLINK-11270, 60999 is a payload satellite owned by SpaceX/Seattle (US) in LEO that was launched on Thu, 05 Sep 2024 UTC via an FALCON 9 launch vehicle from the Air Force Eastern Test Range (AFETR). Payload-class satellites include a variety of spacecraft equipped with specific instruments for various scientific and technological missions. These include communications satellites like Starlink; space stations such as the ISS; scientific satellites like the Hubble; Earth observation satellites from companies like Planet Labs, Umbra, and HawkEye 360; GPS; miniature CubeSats for education and research; and military/defense satellites.

Loading next visibility...
Identifier
60999, 2024-158K
Orbit
LEO
Last TLE update
7 hours ago
Origin
Manufacturer
SpaceX/Seattle
Mission
Operational Commercial Communications
Bus & Motor
STARLINK V2M, Unknown motor
Mass
730 kg wet, ~700 kg dry
Launch date (UTC)
2024-09-05 (10 months ago)
Launch vehicle
FALCON 9
Launch site
Air Force Eastern Test Range (AFETR)
Object type
Payload
Rocket body
Debris
Shape & HBR
Box + 2 Pan, 14.5 m
Radar Cross Section
36.964 m², Large (>1 m²)

Expand to show TLE details & history

TLE from 7 hours ago
0 STARLINK-11270
1 60999U 24158K   25199.70482248  .00001529  00000-0  17449-4 0  9990
2 60999  53.1588 354.7985 0000124  78.2137 281.8895 15.69728404 50856
Epoch: 2025-07-18T16:54Z
TLE epoch observation values (Epoch: 2025-07-18T16:54:56.662Z)
Latitude
Longitude
164.30996°
Altitude
360.572 km
Speed
7.694 km/s
True Right ascension
23h 39m 11s
True Declination
0° 00' 00"
Sunlit
Object was in full shadow at epoch
Visualization orbit readout
Latitude
21.82064°
Longitude
-34.43396°
Altitude
360.285 km
Speed
7.696 km/s
Apparent Right ascension
07h 01m 07s
Apparent Declination
-25° 54' 35"
Sunlit
Object is in daylight
Visualization observer readout
Local Sidereal Time
12:28:06
Azimuth
244.845° WSW
Elevation
-10.446°
Doppler factor
1
Orbital elements
Apogee altitude
360.019 km
Perigee altitude
359.851 km
Semi-major axis
6,738.072 km
Eccentricity
0.00001
Inclination
53.1588°
RAAN
354.7985°
Arg. of periapsis
78.2137°
True anomaly
281.88811°
Mean anomaly
281.8895°
Eccentric anomaly
281.8888°
Mean motion
3.9241 °/min
Orbital period
91.74 mins
BSTAR
0.000017449
Loading maneuver chart data...
Loading SW <> Apogee altitude chart data...
Loading historical data...
Loading historical data...
Loading historical data...
Loading historical data...
Loading historical data...
Loading historical data...
Loading historical data...
|